Tracking 20712 objects as of 29-May-2020
HD Live streaming from Space Station
objects crossing your sky now

IRIDIUM 33 DEB

Track IRIDIUM 33 DEB now!
10-day predictions


NORAD ID: 35624
Int'l Code: 1997-051QW
Perigee: 639.1 km
Apogee: 692.8 km
Inclination: 86.4 °
Period: 97.9 minutes
Semi major axis: 7036 km
RCS: 0.0072 m2 (small)
Launch date: September 14, 1997
Source: United States (US)
Launch site: TYURATAM MISSILE AND SPACE COMPLEX (TTMTR)

Note: This is SATELLITE DEBRIS
aabbcc
Your satellite tracking list
Your tracking list is empty




NASA's NSSDC Master Catalog

Two Line Element Set (TLE):
1 35624U 97051QW  20149.99278196  .00004479  00000-0  72315-3 0  9994
2 35624  86.3574 160.4141 0038125 163.4549 196.7922 14.70708659586386
Source of the keplerian elements: AFSPC